Weather History for Trenton, NJ

Change the Weather History Date:

Wednesday, October 10, 2012

  Actual Average Record
Temperature  
Mean Temperature 59 °F 56 °F  
Max Temperature 66 °F 67 °F 89 °F (1939)
Min Temperature 51 °F 46 °F 32 °F (1895)
Degree Days  
Heating Degree Days 6 9  
Month to date heating degree days 61 75  
Since 1 July heating degree days 107 140  
Cooling Degree Days 0 0  
Month to date cooling degree days 13 7  
Year to date cooling degree days 1232 962  
Growing Degree Days 10 (Base 50)    
Moisture  
Dew Point 52 °F    
Average Humidity 74    
Maximum Humidity 100    
Minimum Humidity 47    
Precipitation  
Precipitation 0.04 in 0.15 in 1.57 in (1971)
Month to date precipitation 0.67 1.52  
Year to date precipitation 28.36 36.77  
Sea Level Pressure  
Sea Level Pressure 29.94 in    
Wind  
Wind Speed 7 mph (North)    
Max Wind Speed 23 mph    
Max Gust Speed 31 mph    
Visibility 7 miles    
Events Rain    
T = Trace of Precipitation, MM = Missing Value Source: NWS Daily Summary

Daily Weather History Graph

Daily Weather History Graph

Search for Another Location

Airport:

Trip Planner

Search our weather history database for the weather conditions in past years. The results will help you decide how hot, cold, wet, or windy it might be!

Date:

Astronomy

Oct. 10, 2012 Rise Set
Actual Time 7:05 AM EDT 6:26 PM EDT
Civil Twilight 6:37 AM EDT 6:53 PM EDT
Nautical Twilight 6:06 AM EDT 7:25 PM EDT
Astronomical Twilight 5:34 AM EDT 7:56 PM EDT
Moon 1:38 AM EDT (10/10) 3:28 PM EDT (10/10)
Length of Visible Light 12h 15m
Length of Day
11h 21m
Waning Crescent, 27% of the Moon is Illuminated
Oct 10
Waning Crescent
Oct 15
New
Oct 21
First Quarter
Oct 29
Full
Nov 6
Last Quarter

Hourly Weather History & Observations

Time (EDT) Temp. Dew Point Humidity Pressure Visibility Wind Dir Wind Speed Gust Speed Precip Events Conditions
12:08 AM 55.4 °F 53.6 °F 94% 30.06 in 2.5 mi NNE 5.8 mph - 0.01 in Rain Light Rain
12:14 AM 55.4 °F 53.6 °F 94% 30.06 in 3.0 mi NNE 5.8 mph - 0.01 in Rain Light Rain
12:27 AM 55.4 °F 53.6 °F 94% 30.06 in 4.0 mi North 4.6 mph - 0.02 in Rain Light Rain
12:45 AM 55.4 °F 53.6 °F 94% 30.05 in 3.0 mi NE 5.8 mph - 0.02 in Rain Light Rain
12:53 AM 55.0 °F 53.1 °F 93% 30.04 in 3.0 mi NE 6.9 mph - 0.02 in Rain Light Rain
12:57 AM 55.4 °F 53.6 °F 94% 30.05 in 2.5 mi NE 5.8 mph - 0.00 in Rain Light Rain
1:12 AM 55.4 °F 53.6 °F 94% 30.05 in 3.0 mi ENE 5.8 mph - 0.01 in Rain Light Rain
1:49 AM 55.4 °F 53.6 °F 94% 30.04 in 4.0 mi ENE 5.8 mph - 0.01 in   Overcast
1:53 AM 55.0 °F 53.1 °F 93% 30.02 in 4.0 mi ENE 5.8 mph - 0.01 in   Overcast
2:53 AM 55.0 °F 54.0 °F 96% 30.00 in 6.0 mi East 5.8 mph - 0.01 in   Overcast
3:26 AM 55.4 °F 53.6 °F 94% 30.00 in 2.5 mi ENE 5.8 mph - 0.01 in Rain Light Rain
3:43 AM 55.4 °F 53.6 °F 94% 29.99 in 2.5 mi ENE 5.8 mph - 0.03 in Rain Light Rain
3:49 AM 55.4 °F 53.6 °F 94% 29.99 in 3.0 mi NE 6.9 mph - 0.03 in Rain Light Rain
3:53 AM 55.9 °F 54.0 °F 93% 29.97 in 4.0 mi NE 5.8 mph - 0.03 in Rain Light Rain
4:12 AM 55.4 °F 53.6 °F 94% 29.98 in 5.0 mi NE 5.8 mph - 0.00 in   Overcast
4:53 AM 55.0 °F 54.0 °F 96% 29.96 in 8.0 mi NE 5.8 mph - 0.00 in   Overcast
5:25 AM 55.4 °F 53.6 °F 94% 29.97 in 6.0 mi NE 3.5 mph - N/A   Overcast
5:53 AM 55.9 °F 54.0 °F 93% 29.94 in 7.0 mi NNE 5.8 mph - N/A   Overcast
6:53 AM 55.9 °F 55.0 °F 97% 29.94 in 9.0 mi North 3.5 mph - N/A   Overcast
7:53 AM 55.9 °F 55.0 °F 97% 29.94 in 10.0 mi Calm Calm - N/A   Mostly Cloudy
8:53 AM 57.0 °F 55.0 °F 93% 29.94 in 10.0 mi NNW 3.5 mph - N/A   Overcast
9:53 AM 57.9 °F 55.0 °F 90% 29.93 in 10.0 mi Calm Calm - N/A   Overcast
10:53 AM 59.0 °F 55.9 °F 90% 29.92 in 7.0 mi Calm Calm - N/A   Overcast
11:26 AM 60.8 °F 55.4 °F 82% 29.92 in 10.0 mi West 4.6 mph - N/A   Overcast
11:53 AM 62.1 °F 57.0 °F 84% 29.89 in 10.0 mi WNW 9.2 mph - N/A   Mostly Cloudy
12:00 PM 62.6 °F 57.2 °F 82% 29.90 in 10.0 mi Variable 6.9 mph - N/A   Mostly Cloudy
12:11 PM 62.6 °F 55.4 °F 77% 29.90 in 10.0 mi Variable 6.9 mph - N/A   Overcast
12:42 PM 62.6 °F 55.4 °F 77% 29.90 in 10.0 mi WNW 9.2 mph - N/A   Overcast
12:53 PM 63.0 °F 55.0 °F 75% 29.87 in 10.0 mi West 8.1 mph - N/A   Overcast
1:19 PM 62.6 °F 53.6 °F 72% 29.88 in 10.0 mi WNW 8.1 mph - N/A   Overcast
1:29 PM 62.6 °F 51.8 °F 68% 29.87 in 10.0 mi West 8.1 mph - N/A   Mostly Cloudy
1:53 PM 64.9 °F 51.1 °F 61% 29.84 in 10.0 mi WNW 9.2 mph - N/A   Mostly Cloudy
2:53 PM 64.9 °F 48.9 °F 56% 29.82 in 10.0 mi WNW 9.2 mph - N/A   Scattered Clouds
3:53 PM 64.9 °F 46.9 °F 52% 29.82 in 10.0 mi WNW 12.7 mph - N/A   Partly Cloudy
4:53 PM 64.9 °F 45.0 °F 48% 29.82 in 10.0 mi WNW 8.1 mph - N/A   Clear
5:53 PM 63.0 °F 45.0 °F 52% 29.82 in 10.0 mi West 6.9 mph - N/A   Mostly Cloudy
6:53 PM 61.0 °F 45.0 °F 56% 29.84 in 10.0 mi WNW 6.9 mph - N/A   Scattered Clouds
7:53 PM 59.0 °F 46.0 °F 62% 29.86 in 10.0 mi West 3.5 mph - N/A   Overcast
8:53 PM 60.1 °F 46.0 °F 60% 29.90 in 10.0 mi NW 12.7 mph 19.6 mph 0.00 in   Overcast
9:53 PM 57.9 °F 37.9 °F 47% 29.93 in 10.0 mi NW 13.8 mph 24.2 mph N/A   Mostly Cloudy
10:53 PM 55.0 °F 41.0 °F 59% 29.96 in 10.0 mi NW 9.2 mph 19.6 mph N/A   Clear
11:53 PM 53.1 °F 35.1 °F 50% 29.99 in 10.0 mi NNW 12.7 mph 27.6 mph N/A   Clear